| time (UTC) | temp F | wind direction | speed MPH | gust MPH | rain 1hr in | rain 24hr in | rain mn in | humidity % | barometer mb |
| 20260505065539 | 55 | 165 | 1.0 | 2.0 | 0.01 | 0.01 | 0.01 | 88 | 1006.3 |
| 20260505064037 | 56 | 182 | 1.0 | 3.0 | 0.01 | 0.01 | 0.01 | 85 | 1006.2 |
| 20260505062540 | 57 | 124 | 2.0 | 13.0 | 0.00 | 0.00 | 0.00 | 80 | 1006.2 |
| 20260505061037 | 60 | 324 | 5.0 | 19.0 | 0.00 | 0.00 | 0.00 | 71 | 1007.2 |
| 20260505060940 | 60 | 202 | 4.0 | 9.0 | 0.00 | 0.00 | 0.00 | 70 | 1006.3 |
| 20260505054039 | 62 | 270 | 7.0 | 16.0 | 0.00 | 0.00 | 0.00 | 67 | 1006.3 |
| 20260505053237 | 62 | 203 | 5.0 | 12.0 | 0.00 | 0.00 | 0.00 | 62 | 1006.1 |
| 20260505051034 | 62 | 175 | 5.0 | 13.0 | 0.00 | 0.00 | 0.00 | 61 | 1006.1 |
| 20260505041031 | 61 | 201 | 5.0 | 12.0 | 0.00 | 0.00 | 0.00 | 61 | 1005.9 |
| 20260505035529 | 61 | 201 | 4.0 | 14.0 | 0.00 | 0.00 | 0.00 | 61 | 1005.8 |
| 20260505034030 | 61 | 186 | 4.0 | 12.0 | 0.00 | 0.00 | 0.00 | 60 | 1005.7 |
| 20260505033228 | 62 | 172 | 5.0 | 12.0 | 0.00 | 0.00 | 0.00 | 59 | 1005.9 |
| 20260505031029 | 61 | 181 | 4.0 | 11.0 | 0.00 | 0.00 | 0.00 | 59 | 1005.9 |
| 20260505025515 | 62 | 161 | 5.0 | 11.0 | 0.00 | 0.00 | 0.00 | 58 | 1005.8 |
| 20260505024011 | 62 | 198 | 4.0 | 9.0 | 0.00 | 0.00 | 0.00 | 59 | 1005.9 |
| 20260505022515 | 62 | 153 | 4.0 | 9.0 | 0.00 | 0.00 | 0.00 | 59 | 1006.0 |
| 20260505021008 | 62 | 190 | 4.0 | 10.0 | 0.00 | 0.00 | 0.00 | 59 | 1006.1 |
| 20260505020202 | 62 | 194 | 3.0 | 9.0 | 0.00 | 0.00 | 0.00 | 57 | 1006.1 |
| 20260505014006 | 62 | 126 | 2.0 | 6.0 | 0.00 | 0.00 | 0.00 | 56 | 1006.0 |
| 20260505012507 | 62 | 215 | 2.0 | 5.0 | 0.00 | 0.00 | 0.00 | 55 | 1006.1 |
| 20260505011005 | 60 | 180 | 1.0 | 4.0 | 0.00 | 0.00 | 0.00 | 58 | 1006.0 |
| 20260505005504 | 60 | 275 | 1.0 | 1.0 | 0.00 | 0.00 | 0.00 | 58 | 1006.0 |
| 20260505003751 | 60 | 161 | 1.0 | 2.0 | 0.00 | 0.00 | 0.00 | 59 | 1005.9 |
| 20260505002252 | 63 | 161 | 1.0 | 2.0 | 0.00 | 0.00 | 0.00 | 56 | 1005.9 |
| 20260505000750 | 65 | 161 | 0.0 | 2.0 | 0.00 | 0.00 | 0.00 | 49 | 1005.9 |
| 20260504235251 | 67 | 191 | 0.0 | 2.0 | 0.00 | 0.00 | 0.00 | 46 | 1005.7 |
| 20260504233747 | 69 | 185 | 2.0 | 4.0 | 0.00 | 0.00 | 0.00 | 43 | 1005.6 |
| 20260504232250 | 70 | 208 | 2.0 | 6.0 | 0.00 | 0.00 | 0.00 | 43 | 1005.5 |
| 20260504230743 | 70 | 189 | 3.0 | 8.0 | 0.00 | 0.00 | 0.00 | 41 | 1005.4 |
| 20260504230530 | 71 | 279 | 3.0 | 8.0 | 0.00 | 0.00 | 0.00 | 41 | 1005.7 |
| 20260504225253 | 71 | 226 | 3.0 | 7.0 | 0.00 | 0.00 | 0.00 | 41 | 1005.6 |
| 20260504222934 | 71 | 268 | 4.0 | 13.0 | 0.00 | 0.00 | 0.00 | 39 | 1005.7 |
| 20260504220743 | 71 | 175 | 4.0 | 14.0 | 0.00 | 0.00 | 0.00 | 40 | 1005.8 |
| 20260504215955 | 71 | 181 | 6.0 | 19.0 | 0.00 | 0.00 | 0.00 | 41 | 1005.9 |
| 20260504214414 | 71 | 186 | 7.0 | 19.0 | 0.00 | 0.00 | 0.00 | 41 | 1006.0 |
| 20260504212927 | 70 | 181 | 5.0 | 17.0 | 0.00 | 0.00 | 0.00 | 45 | 1006.0 |
| 20260504210725 | 70 | 169 | 7.0 | 15.0 | 0.00 | 0.00 | 0.00 | 43 | 1006.1 |
| 20260504205933 | 69 | 285 | 7.0 | 18.0 | 0.00 | 0.00 | 0.00 | 43 | 1006.1 |
| 20260504203724 | 70 | 238 | 8.0 | 17.0 | 0.00 | 0.00 | 0.00 | 43 | 1006.1 |
| 20260504202223 | 69 | 227 | 8.0 | 23.0 | 0.00 | 0.00 | 0.00 | 46 | 1006.1 |
| 20260504200725 | 69 | 265 | 10.0 | 24.0 | 0.00 | 0.00 | 0.00 | 47 | 1006.5 |
| 20260504195222 | 69 | 259 | 6.0 | 16.0 | 0.00 | 0.00 | 0.00 | 49 | 1006.7 |
| 20260504193722 | 69 | 188 | 6.0 | 15.0 | 0.00 | 0.00 | 0.00 | 48 | 1007.0 |
| 20260504192220 | 68 | 182 | 7.0 | 20.0 | 0.00 | 0.00 | 0.00 | 49 | 1007.1 |
| 20260504190719 | 67 | 262 | 6.0 | 18.0 | 0.00 | 0.00 | 0.00 | 53 | 1007.3 |
| 20260504185219 | 67 | 281 | 7.0 | 18.0 | 0.00 | 0.00 | 0.00 | 51 | 1007.4 |
| 20260504183718 | 66 | 198 | 8.0 | 18.0 | 0.00 | 0.00 | 0.00 | 54 | 1007.7 |
| 20260504182220 | 66 | 334 | 8.0 | 20.0 | 0.00 | 0.00 | 0.00 | 53 | 1007.6 |
| 20260504180718 | 67 | 173 | 7.0 | 18.0 | 0.00 | 0.00 | 0.00 | 53 | 1007.6 |
| 20260504175217 | 66 | 132 | 8.0 | 18.0 | 0.00 | 0.00 | 0.00 | 56 | 1007.8 |
| 20260504173719 | 65 | 278 | 9.0 | 18.0 | 0.00 | 0.00 | 0.00 | 57 | 1007.8 |
| 20260504172925 | 65 | 184 | 8.0 | 18.0 | 0.00 | 0.00 | 0.00 | 56 | 1007.8 |
| 20260504171433 | 64 | 269 | 8.0 | 30.0 | 0.00 | 0.00 | 0.00 | 57 | 1007.8 |
| 20260504160445 | 62 | 169 | 7.0 | 14.0 | 0.00 | 0.00 | 0.00 | 58 | 1008.4 |
| 20260504150444 | 58 | 17 | 7.0 | 18.0 | 0.00 | 0.00 | 0.00 | 60 | 1008.9 |
| 20260504140442 | 56 | 201 | 6.0 | 18.0 | 0.00 | 0.00 | 0.00 | 61 | 1009.4 |
| 20260504130436 | 53 | 194 | 6.0 | 15.0 | 0.00 | 0.00 | 0.00 | 62 | 1009.6 |
| 20260504100410 | 48 | 185 | 4.0 | 10.0 | 0.00 | 0.00 | 0.00 | 65 | 1009.8 |
| 20260504080408 | 49 | 177 | 4.0 | 9.0 | 0.00 | 0.00 | 0.00 | 63 | 1009.9 |
| 20260504070226 | 49 | 271 | 4.0 | 11.0 | 0.00 | 0.00 | 0.00 | 61 | 1010.1 |